Weather in Velyka Rublivka

Ukraine / Poltava Region     49°53′54″N   34°48′03″E
temp.,
°C
wind,
m/s
gust,
m/s
humid.,
%
clouds,
%
prec.,
mm/h
press.,
hPa
HPBL,
m
23 april, fri
fri2300:00+9s497421 0.0 1019160
03:00+9s41178100 0.0 1018270
06:00+7s411879 0.0 1018247
09:00+11ssw7116998 0.0 1018588
12:00+16ssw8115372 0.0 10161616
15:00+15sw61059100 0.9 10151610
18:00+9wnw5692100 4.8 1014440
21:00+7nw4788100 7.6 1016570
24 april, sat
sat2400:00+7wnw3782100 0.0 1016573
03:00+6w498680 0.1 1015342
06:00+3w49895 0.0 1015267
09:00+7w79685 0.1 1016993
12:00+8w1013395 0.4 10172270
15:00+8w101437100 0.4 10173246
18:00+7wnw8125187 0.3 10181935
21:00+3w49671 0.3 1020217
25 april, sun
sun2500:00+2wsw49720 0.0 1021193
03:00+1w37733 0.0 1021131
06:000wsw34735 0.0 102162
09:00+7sw46545 0.0 1021669
12:00+10sw685083 0.3 10201831
15:00+12sw694594 0.3 10182294
18:00+10w71071100 0.2 10171075
21:00+7nw4681100 0.4 1018449
26 april, mon
mon2600:00+5wsw1179100 0.5 101833
03:00+4nnw2280100 0.5 101845
06:00+4n1177100 0.0 101750
09:00+6nnw2262100 0.0 1017726
12:00+8w3447100 0.1 10161636
15:00+10w6740100 0.1 10152471
18:00+9w584712 0.0 10152024
21:00+4w35685 0.1 101693
27 april, tue
tue2700:00+2w36745 0.0 1017108
03:00+1w357846 0.0 101788
06:00+1w2375100 0.0 101757
09:00+6wsw3550100 0.0 1017712
12:00+9sw4639100 0.0 10172100
15:00+9wsw5654100 0.3 10161569
18:00+9wsw46596 0.9 10161371
21:00+4wnw11755 0.9 101810